Lid_Strength_Index
18 21 24 23 21 22 22 23 24 21 18 20 20 21 20 17 16 16 15 13 12 11 10 13 12 13 13 13 14 13 13 10 2 2 2 2 2 2 1 2 2 3 3 4
21 24 21 19 18 21 22 24 24 21 19 20 21 21 19 17 16 16 17 14 15 18 15 15 14 14 14 14 15 14 14 13 12 1 2 2 2 1 1 2 2 3 3 4
22 21 18 19 21 21 22 23 23 23 21 20 20 22 19 16 17 16 17 18 18 18 18 17 17 16 15 15 15 15 15 14 13 11 3 1 1 1 2 2 3 3 4 5
21 19 19 20 21 20 23 20 21 22 23 26 21 28 21 19 18 18 17 18 19 19 19 19 18 18 17 17 16 15 15 15 13 12 10 2 3 4 2 2 2 3 4 5
21 21 21 22 21 19 22 19 21 21 23 24 23 25 21 19 21 19 18 18 18 18 19 20 20 19 18 17 17 16 16 15 14 14 13 5 3 2 2 2 3 4 5 5
20 19 20 20 18 19 18 20 20 21 23 28 23 24 22 21 19 18 16 16 16 17 18 19 19 19 19 18 18 17 17 16 15 15 14 10 3 3 3 3 4 5 5 5
22 21 20 18 21 19 19 23 30 32 31 28 21 23 21 16 15 14 15 14 14 15 16 18 19 20 20 20 19 18 18 17 16 15 14 12 8 2 3 4 5 5 5 5
27 27 22 19 20 24 21 25 29 35 29 27 20 21 19 14 13 12 12 12 13 14 15 16 16 18 19 19 20 19 19 18 17 15 15 13 11 5 5 5 6 6 6 6
30 26 20 18 19 20 23 27 22 29 25 27 23 21 15 14 14 13 13 14 14 14 15 15 16 16 17 18 19 19 19 18 17 16 14 14 13 12 8 6 7 7 7 8
23 30 21 19 19 19 22 20 27 27 38 36 25 24 22 18 16 15 15 15 14 14 14 15 15 15 16 17 18 18 19 19 17 16 14 14 14 13 12 10 9 7 7 7
27 26 23 21 25 23 23 25 24 24 26 30 29 28 20 18 16 16 15 14 14 15 14 14 14 15 15 16 17 18 19 19 18 17 16 15 14 14 14 13 13 10 8 8
22 27 28 25 22 20 22 25 24 31 30 26 26 27 17 16 15 15 15 14 14 13 14 14 15 15 16 16 17 18 18 19 18 17 16 16 15 15 15 14 13 13 12 9
25 29 34 27 26 23 26 21 20 22 23 27 32 27 16 15 17 15 15 15 15 14 14 14 15 16 16 17 17 17 18 19 19 18 17 17 18 17 16 15 14 13 13 12
17 28 29 29 26 28 30 27 21 26 31 26 24 23 20 18 18 16 15 15 16 15 14 15 15 15 16 16 17 18 18 18 19 19 19 18 17 17 16 16 15 14 13 13
21 31 31 25 23 23 24 24 23 25 24 28 23 23 21 18 19 16 15 15 14 14 15 15 15 15 16 17 17 18 19 19 19 19 19 20 19 18 17 17 16 15 14 13
24 30 31 28 22 22 25 23 23 22 22 22 22 22 17 16 18 17 14 14 14 14 14 14 14 15 16 17 17 17 19 20 19 20 20 19 20 19 18 17 17 15 15 14
25 26 32 33 25 26 30 27 23 23 26 24 25 20 19 19 16 15 15 14 14 13 13 14 15 16 16 17 17 18 18 19 20 20 20 20 20 19 19 19 18 17 17 15
24 26 29 32 33 37 23 23 24 22 21 21 21 19 19 18 17 16 15 15 13 13 13 13 16 17 16 17 18 17 18 19 20 21 20 21 21 20 20 20 20 19 18 17
18 23 33 34 40 28 23 23 25 25 25 20 19 18 17 19 20 18 14 14 14 14 14 15 15 17 17 18 17 17 18 19 20 21 21 21 21 21 20 21 21 20 20 19
19 19 25 40 38 36 26 23 21 22 28 24 21 19 19 19 22 20 16 15 14 13 14 14 14 15 15 16 17 17 18 20 21 22 21 21 20 21 21 21 21 20 20 19
26 27 26 27 33 30 22 21 20 29 25 21 20 18 18 19 18 17 16 15 13 13 13 14 15 16 16 16 16 18 18 20 21 22 22 22 21 21 20 21 21 21 20 20
28 30 34 34 35 32 20 20 22 20 22 19 19 17 16 17 15 15 14 14 14 14 14 14 15 16 16 17 17 18 19 19 21 22 22 23 23 22 21 21 22 22 22 21
27 23 27 27 26 22 19 17 16 19 19 19 18 16 15 16 15 14 14 14 14 15 14 14 16 17 22 23 19 20 19 20 21 23 24 24 23 23 23 23 23 23 23 22
23 23 24 24 21 19 18 17 16 16 17 15 15 15 15 16 15 14 13 14 15 15 16 17 18 19 21 21 18 20 20 23 27 26 24 24 25 24 24 23 23 24 23 23
20 22 24 21 18 16 16 15 14 15 14 15 14 14 14 15 14 14 13 14 15 15 16 18 18 19 20 20 22 24 22 25 24 24 25 24 24 25 25 24 24 23 22 21
18 18 20 21 16 16 16 14 14 15 15 14 14 14 13 14 14 14 15 15 16 17 18 19 20 20 21 21 21 22 24 24 26 25 24 24 24 24 25 26 26 23 21 20